This is the latest recevied weather packets stored in our database for station/object SQ5LTL-2. If no packets are shown the sender has not sent any weather packets the latest 10 day(s).
| Time | Temp. | Humidity | Pressure | Rain* | Wind** | Luminosity | Snow |
|---|---|---|---|---|---|---|---|
| 1777795829 | 21.11° C | 41% | 1020.5 hPa | 0 mm | - | 457 W/m² | - |
| 1777795526 | 20.56° C | 41% | 1020.6 hPa | 0 mm | - | 445 W/m² | - |
| 1777795225 | 20.56° C | 41% | 1020.6 hPa | 0 mm | - | 434 W/m² | - |
| 1777794924 | 20.56° C | 41% | 1020.7 hPa | 0 mm | - | 422 W/m² | - |
| 1777794622 | 20° C | 41% | 1020.7 hPa | 0 mm | - | 411 W/m² | - |
| 1777794321 | 20° C | 42% | 1020.6 hPa | 0 mm | - | 400 W/m² | - |
| 1777794019 | 20° C | 42% | 1020.6 hPa | 0 mm | - | 390 W/m² | - |
| 1777793717 | 20° C | 41% | 1020.7 hPa | 0 mm | - | 380 W/m² | - |
| 1777793416 | 20° C | 42% | 1020.6 hPa | 0 mm | - | 371 W/m² | - |
| 1777793135 | 19.44° C | 42% | 1020.6 hPa | 0 mm | - | 363 W/m² | - |
| 1777792834 | 19.44° C | 42% | 1020.7 hPa | 0 mm | - | 355 W/m² | - |
| 1777792532 | 19.44° C | 42% | 1020.7 hPa | 0 mm | - | 348 W/m² | - |
| 1777792230 | 19.44° C | 43% | 1020.6 hPa | 0 mm | - | 342 W/m² | - |
| 1777791929 | 18.89° C | 45% | 1020.7 hPa | 0 mm | - | 336 W/m² | - |
| 1777791627 | 18.89° C | 47% | 1020.6 hPa | 0 mm | - | 328 W/m² | - |
| 1777791325 | 18.33° C | 48% | 1020.6 hPa | 0 mm | - | 322 W/m² | - |
| 1777791024 | 17.78° C | 50% | 1020.7 hPa | 0 mm | - | 315 W/m² | - |
| 1777790722 | 17.78° C | 51% | 1020.6 hPa | 0 mm | - | 306 W/m² | - |
| 1777790422 | 16.67° C | 53% | 1020.6 hPa | 0 mm | - | 297 W/m² | - |
| 1777790119 | 16.67° C | 54% | 1020.6 hPa | 0 mm | - | 286 W/m² | - |
| 1777789818 | 16.11° C | 54% | 1020.5 hPa | 0 mm | - | 275 W/m² | - |
| 1777789517 | 16.11° C | 56% | 1020.6 hPa | 0 mm | - | 264 W/m² | - |
| 1777789235 | 15.56° C | 57% | 1020.5 hPa | 0 mm | - | 253 W/m² | - |
| 1777788933 | 15° C | 58% | 1020.5 hPa | 0 mm | - | 240 W/m² | - |
| 1777788632 | 15° C | 59% | 1020.5 hPa | 0 mm | - | 228 W/m² | - |
* Rain latest hour (hover to see other rain measurements)
** Current wind speed in m/s (hover to see current wind gust speed)